Home > Weather > Mildura > Past weeks

Flag for Australia Past Weather in Mildura, Victoria, Australia — Yesterday and Last 2 Weeks

Now
53 °F

Cool.


Feels Like: 49 °F
Forecast: 49 / 61 °F
Wind: 13 mph from North

Location: Mildura Airport

Current Time: May 25, 2016 at 5:28:25 PM

Latest Report: May 25, 2016 at 4:00 PM


Visibility: N/A

Pressure: 29.85 "Hg

Humidity: 84%

Dew Point: 48 °F

Location of MilduraLocation

Past Weather in Mildura — Graph

°F

Mildura Temperature Yesterday

Maximum temperature yesterday: 67 °F (at 3:00 PM)
Minimum temperature yesterday: 41 °F (at 5:00 AM)
Average temperature yesterday: 53 °F

High & Low Weather Summary for the Past Weeks

 TemperatureHumidityPressure
High81 °F (May 22, 4:00 PM)100% (May 13, 6:00 AM)30.27 "Hg (May 13, 6:00 AM)
Low41 °F (May 24, 5:00 AM)25% (May 22, 4:00 PM)29.85 "Hg (May 25, 4:00 PM)
Average58 °F70%30.11 "Hg
* Reported May 10 4:00 PM — May 25 4:00 PM, Mildura, Weather by CustomWeather, © 2016

Note: Actual official high and low records may vary slightly from our data, if they occured in-between our weather recording intervals... More about our weather records

Advertising

Mildura Weather History for the Previous 24 Hours

Scroll right to see more
 ConditionsComfort  
Time TempWeatherWind HumidityBarometerVisibility
4:00 PM
Wed, May 25
53 °FCool.13 mph84%29.85 "HgN/A
3:00 PM53 °FDrizzle. Overcast.14 mph85%29.88 "Hg16 mi
2:00 PM51 °FCool.10 mph92%29.91 "HgN/A
1:00 PM51 °FCool.10 mph93%29.95 "HgN/A
12:00 PM51 °FOvercast.10 mph88%29.99 "Hg6 mi
11:00 AM56 °FCool.13 mph60%30.01 "HgN/A
10:00 AM56 °FRefreshingly cool.8 mph53%30.02 "HgN/A
9:00 AM55 °FOvercast.7 mph57%30.04 "Hg22 mi
8:00 AM53 °FCool.10 mph61%30.01 "HgN/A
7:00 AM54 °FCool.8 mph58%30.03 "HgN/A
6:00 AM53 °FOvercast.15 mph60%29.99 "HgN/A
5:00 AM53 °FCool.13 mph62%29.99 "HgN/A
4:00 AM49 °FCool.7 mph72%30.01 "HgN/A
3:00 AM48 °FPassing clouds.8 mph75%30.03 "HgN/A
2:00 AM50 °FCool.7 mph74%30.06 "HgN/A
1:00 AM48 °FCool.6 mph77%30.07 "HgN/A
12:00 AM49 °FCool.6 mph76%30.09 "HgN/A
11:00 PM
Tue, May 24
48 °FCool.7 mph78%30.10 "HgN/A
10:00 PM49 °FCool.6 mph77%30.12 "HgN/A
9:00 PM49 °FCool.5 mph79%30.12 "HgN/A
8:00 PM51 °FCool.5 mph76%30.14 "HgN/A
7:00 PM56 °FCool.3 mph64%30.13 "HgN/A
6:00 PM61 °FRefreshingly cool.5 mph52%30.12 "HgN/A
5:00 PM65 °FMild.6 mph46%30.11 "HgN/A
Weather by CustomWeather, © 2016

See weather overviewHow to use our weather pages